Theta_e
314 313 317 320 324 326 325 325 322 321 320 313 312 314 317 322 322 321 321 322 322 324 325 326 329 328 326 326 326 323 324 328 329 329 333 339 341 340 341 340 340 341 341 341 338 335 337 338 339 339 332 323 321 319 321 327 331 332 332 332 331 330 332 332 333 334 335 335 332 331 332 332 331 331 331 330 330 331 332 332 332 332 332 331 330 330 330 331 331 330 330 330 329 329 330 329 328
317 317 317 321 323 324 324 324 320 317 314 310 313 316 318 321 321 320 321 323 324 323 324 326 327 328 324 323 322 323 326 328 333 335 336 339 339 340 341 341 340 340 341 341 339 338 339 338 338 338 331 324 321 320 320 325 331 333 332 332 331 331 332 333 335 334 335 335 333 333 333 332 331 330 330 329 330 331 332 332 332 333 333 333 332 330 330 331 330 330 330 329 329 329 329 329 330
321 322 322 323 323 322 324 323 317 313 311 310 312 318 319 320 321 321 322 323 325 323 325 328 328 327 324 323 323 323 327 330 336 335 335 339 339 339 340 340 339 340 341 340 340 341 341 338 338 337 331 325 321 320 320 323 329 332 333 332 332 332 332 333 335 334 334 334 333 333 333 332 331 330 330 329 330 331 332 332 332 333 333 333 332 330 330 331 330 330 330 330 330 329 329 329 329
321 324 326 325 324 323 323 323 319 314 311 310 311 318 319 320 321 322 324 324 325 325 326 327 327 327 325 326 323 323 329 333 337 336 336 339 338 339 340 339 338 340 340 340 340 341 341 338 337 337 332 327 322 320 320 321 327 333 333 332 332 332 333 334 334 333 334 334 334 334 333 332 331 330 330 329 330 332 332 331 332 332 332 332 331 329 330 330 330 330 330 330 330 329 329 329 328
322 323 325 325 326 324 323 323 321 316 313 313 313 318 319 320 321 322 323 322 323 325 325 326 327 327 325 326 324 326 331 332 337 338 337 339 339 339 339 338 338 339 339 340 340 341 340 337 337 337 334 330 324 321 320 321 325 330 333 333 332 331 332 333 333 333 334 334 335 334 333 332 331 331 329 328 329 331 331 332 331 331 331 331 331 330 329 329 329 329 329 329 329 328 329 329 329
323 323 323 324 325 323 322 318 315 315 317 318 316 318 319 319 321 322 323 321 321 322 324 326 327 326 326 327 327 330 333 333 336 338 338 339 338 338 339 338 338 338 338 339 340 342 340 336 338 337 336 332 325 321 321 322 323 326 330 332 333 332 331 333 334 334 334 334 335 333 332 332 331 330 328 328 329 329 330 330 331 331 331 331 331 330 330 329 329 329 329 328 328 328 329 329 329
324 323 322 321 322 323 321 316 315 316 318 320 318 318 318 319 321 322 322 321 320 320 322 324 325 324 327 327 328 331 334 336 336 338 339 338 337 338 338 337 337 337 337 339 340 342 339 336 337 337 337 334 327 322 321 322 323 322 326 331 332 333 332 332 334 333 334 334 334 333 331 331 330 329 328 328 329 329 329 330 331 331 331 330 330 330 331 331 330 330 328 327 328 329 328 329 329
324 323 323 322 322 322 320 318 319 319 318 318 318 318 318 320 321 322 321 321 320 320 321 323 323 323 324 324 329 333 334 336 337 337 338 337 337 337 337 337 337 337 337 338 341 342 338 336 337 337 337 335 329 324 322 322 323 321 323 328 331 333 333 333 333 332 333 334 333 332 331 330 329 329 327 328 328 328 329 330 330 330 330 329 329 330 330 330 330 330 328 327 328 328 328 328 329
323 322 322 323 323 320 318 318 319 319 319 318 318 317 318 320 321 321 321 321 320 320 322 323 322 321 322 322 328 334 335 336 336 336 337 337 337 337 337 336 336 337 337 338 341 342 338 336 337 337 337 336 332 327 323 322 323 322 321 324 328 331 333 333 333 332 332 332 332 332 330 329 329 328 327 327 327 327 328 329 328 329 329 329 329 329 329 329 329 329 329 328 328 328 328 328 328
321 321 321 323 321 317 314 316 318 319 319 318 318 317 318 319 321 322 320 320 319 319 322 322 321 320 319 321 327 333 337 336 335 336 337 337 336 337 336 336 337 337 336 338 341 342 339 336 337 337 337 336 334 329 325 323 323 323 321 321 323 326 330 332 332 332 332 331 331 330 329 328 328 328 327 327 327 327 327 328 328 328 329 329 329 328 328 328 329 328 328 328 328 328 328 328 327
320 320 321 321 317 314 313 315 317 319 319 318 318 317 318 318 320 321 320 320 319 320 321 320 319 319 318 320 328 334 337 336 336 337 337 337 336 337 336 336 337 337 337 339 340 341 339 337 337 337 337 336 335 332 327 324 324 323 323 322 320 321 325 328 328 330 331 331 330 330 328 327 328 328 327 327 327 327 327 328 328 329 329 329 328 327 326 327 327 327 328 327 327 328 327 327 326
321 320 321 319 316 315 316 316 317 319 319 319 318 317 318 318 320 320 320 319 318 319 319 320 319 319 318 320 328 333 336 338 337 337 337 337 336 337 336 337 337 337 338 338 339 341 340 338 338 337 337 336 335 334 330 325 324 324 324 324 322 319 321 323 324 325 327 328 328 329 327 325 327 328 327 327 327 327 327 327 328 329 329 329 328 328 326 325 325 326 327 327 327 327 327 326 326
321 321 320 318 318 320 318 318 317 318 319 319 319 317 318 318 320 319 319 318 317 318 318 319 318 319 319 322 328 331 336 338 338 337 337 337 336 337 336 337 337 338 339 338 339 340 340 339 338 338 337 336 335 335 333 327 325 324 324 324 323 321 320 320 320 321 322 324 324 325 324 322 326 328 327 327 327 327 327 327 328 328 329 329 329 328 326 324 324 325 326 326 327 327 327 326 326
321 322 321 320 322 322 319 318 317 316 317 319 319 317 318 318 319 319 319 318 317 318 318 318 318 319 318 321 325 327 335 338 338 337 337 337 337 337 337 337 337 338 339 338 338 339 341 340 340 339 337 337 336 335 334 331 327 325 325 324 324 324 322 320 320 319 319 319 319 321 321 319 323 327 327 327 326 326 327 327 328 328 329 329 328 327 325 323 325 325 326 326 327 327 326 326 326
321 321 322 322 320 320 319 319 318 315 316 319 318 317 318 317 317 318 318 318 317 316 316 317 318 320 316 321 325 328 336 338 337 337 337 337 337 337 337 338 338 338 338 338 337 338 340 340 340 340 338 338 337 336 335 333 330 326 326 325 325 324 324 323 321 319 319 317 315 316 318 317 320 325 327 326 327 326 327 327 328 329 329 328 327 326 324 323 325 324 325 326 326 325 325 326 326
322 321 322 321 318 317 318 320 319 316 317 319 317 317 318 316 316 316 316 316 316 316 316 317 318 319 318 324 332 336 338 337 337 337 337 337 337 337 337 338 337 337 337 337 336 337 339 340 340 340 339 339 339 338 337 336 332 329 326 326 326 325 325 325 323 322 320 318 315 312 314 317 318 322 326 326 326 326 326 327 327 328 328 328 326 325 324 324 324 323 325 326 325 325 325 325 324
321 322 321 318 317 317 319 320 318 315 317 318 316 317 318 317 316 315 314 314 316 316 316 318 318 320 322 325 331 338 338 336 337 337 337 337 337 337 337 337 336 336 336 336 336 336 338 339 340 340 340 340 339 339 339 338 335 331 328 327 327 326 326 325 325 324 321 320 317 312 316 324 323 321 325 327 326 325 326 326 327 327 327 326 325 324 324 324 324 322 322 324 325 325 324 324 324
319 321 319 316 319 319 319 320 317 317 318 318 317 318 318 317 316 315 314 315 316 316 315 317 317 320 324 325 329 335 335 335 337 337 337 336 336 337 336 336 336 336 336 336 335 335 337 339 339 340 340 340 340 339 339 339 337 335 332 330 328 327 326 325 326 325 325 324 319 316 323 330 328 326 327 327 326 326 326 326 327 327 325 324 324 323 323 323 322 319 318 321 323 322 323 324 324
319 320 318 318 321 320 320 319 317 317 317 318 318 318 318 318 317 315 315 316 316 315 316 316 316 320 324 325 328 332 333 336 337 337 337 336 336 336 336 336 336 335 335 335 335 335 336 338 339 339 340 339 339 339 339 339 338 336 336 335 331 330 328 327 328 329 330 328 323 323 328 329 329 331 327 325 327 327 326 326 326 327 325 324 323 322 321 322 320 316 317 318 318 320 322 324 324
319 321 320 320 321 319 318 318 317 317 317 317 317 317 318 317 316 316 315 316 315 315 316 316 315 319 323 325 329 331 333 336 337 337 337 337 337 337 337 336 336 335 335 335 335 335 335 337 338 339 339 339 339 339 339 339 339 337 337 338 335 334 331 330 331 331 331 331 328 328 331 327 327 331 324 321 327 327 326 326 326 326 325 323 322 323 322 320 318 317 317 316 318 321 323 324 323
318 319 319 320 320 318 317 317 316 315 316 317 317 317 317 316 315 315 315 316 316 315 316 317 315 317 322 325 330 332 333 335 336 337 337 337 338 338 338 337 337 336 335 335 335 335 335 335 336 338 339 339 339 339 338 338 338 338 337 338 337 336 334 332 332 331 331 331 331 330 331 327 325 328 322 319 326 328 327 326 326 326 326 325 323 325 324 320 320 319 316 318 322 323 324 324 323
317 317 318 319 319 318 317 315 314 314 315 316 317 317 316 315 315 315 316 316 316 315 316 317 316 316 323 325 331 333 333 335 336 337 337 337 338 338 338 338 337 337 336 336 335 335 335 335 335 336 337 338 338 338 338 338 338 338 337 337 337 336 336 334 332 331 331 331 331 329 331 328 324 327 324 322 327 328 328 327 327 327 327 326 324 326 326 323 323 321 316 319 324 324 323 324 324
317 317 317 317 317 317 315 314 313 313 315 316 316 316 316 315 315 315 315 316 315 315 315 314 315 319 325 327 331 332 332 335 336 337 337 337 337 338 338 338 338 337 337 336 336 336 335 336 335 336 336 337 337 337 338 338 337 337 337 337 337 337 336 335 333 332 331 330 330 329 330 329 327 327 327 327 328 329 329 328 328 327 327 327 325 326 326 324 324 322 319 320 323 322 322 322 322
316 317 316 316 315 315 314 313 311 312 315 316 315 315 315 316 316 314 314 316 314 313 313 314 316 321 326 327 329 331 333 334 335 336 337 337 337 337 338 338 338 337 337 337 336 336 336 336 336 336 336 336 337 337 337 337 337 337 337 337 337 336 336 335 334 333 331 331 330 329 329 329 329 328 327 327 328 328 329 328 328 328 327 327 326 326 325 324 324 322 321 320 320 320 320 319 321
316 316 316 314 313 313 311 311 311 312 314 313 313 314 315 315 314 313 314 316 314 313 313 315 318 320 323 324 326 329 332 333 334 335 337 337 338 338 338 338 338 338 338 337 337 336 336 336 336 336 336 336 336 336 337 337 337 337 337 337 337 336 336 335 334 334 332 331 330 329 329 329 329 328 328 327 327 327 328 328 328 328 327 327 326 326 325 324 323 322 320 320 319 321 322 320 321
316 316 315 314 313 312 311 312 311 312 313 312 314 315 315 312 312 314 315 315 314 312 313 316 319 318 320 322 324 327 329 332 334 335 336 336 337 338 338 338 338 338 338 337 337 336 336 336 336 336 336 336 336 337 337 337 337 337 337 337 336 336 335 335 335 334 333 332 331 330 329 329 329 329 329 328 327 327 328 327 327 327 327 327 326 325 324 324 323 322 321 321 321 322 323 322 322
315 314 314 314 313 312 312 313 311 312 313 312 315 315 314 312 312 316 316 313 312 312 313 317 318 317 319 321 323 327 329 332 333 334 336 335 336 337 337 338 337 337 337 336 337 337 336 336 336 336 336 336 336 337 337 337 337 337 337 336 336 336 335 335 335 334 334 333 331 330 330 329 329 329 329 328 328 327 327 327 326 325 326 325 324 323 323 322 322 321 320 320 321 322 322 322 322
315 314 314 313 312 313 312 313 312 313 313 312 315 315 314 313 313 315 315 312 312 313 315 317 317 316 318 320 323 327 329 331 333 334 335 335 335 335 336 336 336 336 336 336 336 336 336 335 336 336 336 336 336 336 337 337 337 337 337 336 336 336 335 335 335 334 334 333 331 331 330 330 329 329 329 329 328 328 327 327 326 325 325 324 323 322 322 322 321 320 319 319 320 321 321 322 321
315 314 315 314 313 314 313 313 312 313 314 312 313 314 313 314 314 315 313 311 312 313 314 317 316 316 319 321 323 326 328 330 332 333 333 334 334 334 334 334 335 335 335 336 336 336 336 335 335 335 335 336 336 336 337 337 337 337 337 337 336 336 335 335 335 335 334 333 332 331 331 330 329 329 329 329 328 328 327 327 326 326 325 324 322 321 322 322 321 319 320 320 318 318 319 320 320
314 315 316 315 314 314 314 313 312 313 313 311 312 311 313 316 315 315 312 311 312 313 314 315 316 317 319 321 323 324 327 329 332 332 332 333 333 333 333 333 334 334 335 335 336 337 337 336 335 335 335 335 336 336 336 335 335 336 336 336 335 335 335 335 335 335 334 334 333 332 331 330 330 329 329 329 329 328 327 327 327 326 325 324 323 322 322 322 321 320 319 319 319 318 318 318 319
314 314 315 315 313 313 314 313 313 314 312 311 313 310 313 317 316 313 312 311 313 313 314 314 315 316 317 320 321 322 324 328 329 330 331 332 333 333 333 333 333 334 334 335 336 336 336 336 335 335 335 335 335 335 335 335 334 334 335 335 335 335 334 334 335 335 334 334 334 333 331 330 330 329 329 329 329 328 328 327 327 326 325 325 324 323 322 321 321 321 320 319 319 319 319 318 319
314 312 312 314 313 312 314 313 313 314 312 312 313 311 313 316 314 311 311 311 312 313 314 314 314 315 315 317 318 318 321 325 327 327 329 330 331 332 333 333 334 334 334 335 335 336 336 336 335 335 335 335 335 334 334 334 334 333 333 334 335 335 334 334 334 334 334 334 334 333 332 331 330 330 330 329 329 329 328 328 328 327 326 327 327 326 325 323 321 321 321 321 320 319 319 319 320
314 312 310 313 313 313 314 313 313 313 313 313 312 312 314 315 313 311 311 312 312 313 314 314 314 314 314 314 315 316 316 320 324 326 327 329 330 331 333 334 334 335 334 335 336 336 336 335 335 334 335 335 334 334 334 333 333 332 332 332 333 334 334 334 334 334 334 334 334 334 333 332 331 331 330 329 329 329 329 329 329 328 327 328 328 328 327 325 321 321 322 322 321 320 320 320 320
312 312 311 313 314 312 312 313 312 312 314 314 313 312 314 315 315 313 312 312 312 313 313 314 314 314 314 315 314 315 315 316 319 322 324 326 329 330 331 331 332 334 334 334 335 335 336 335 335 334 334 335 335 335 334 333 333 332 332 332 332 333 333 334 334 334 334 333 333 333 333 332 332 331 331 330 329 329 329 329 328 328 328 327 327 326 326 325 323 321 322 322 322 320 320 320 320
312 311 311 314 313 311 311 312 313 312 313 314 314 312 313 314 315 315 313 312 313 313 314 314 315 315 315 315 315 314 315 315 316 318 319 322 325 328 328 329 329 331 332 332 333 334 335 334 335 334 334 334 335 334 334 333 333 332 332 332 332 332 331 332 332 333 333 333 333 333 333 333 332 332 332 331 330 330 330 329 329 328 328 327 326 325 324 325 325 323 322 322 321 320 319 319 319
313 313 312 312 312 311 312 313 312 312 313 313 314 313 314 314 315 315 314 313 313 313 314 314 315 315 315 315 315 316 315 315 317 318 317 317 319 321 324 326 327 328 328 330 330 332 333 333 333 334 333 333 334 334 334 333 333 332 332 332 333 332 332 332 331 332 332 332 333 333 333 333 332 331 331 332 331 330 329 329 329 328 328 327 326 325 325 325 325 323 323 322 321 320 319 318 317
315 314 312 312 312 311 313 314 311 312 313 313 314 314 315 315 315 315 314 314 314 314 314 314 315 315 316 316 316 317 316 318 320 318 316 315 315 316 317 319 323 326 327 327 328 329 331 332 332 333 332 332 332 332 333 333 332 332 331 331 332 332 332 332 331 331 332 332 332 332 331 331 332 331 331 331 330 330 329 329 328 328 329 328 326 326 326 325 324 323 323 322 320 319 319 318 317
314 314 313 312 312 311 313 314 311 312 312 313 314 314 315 315 315 315 315 315 315 315 314 314 314 315 316 316 317 318 318 322 321 317 315 315 315 314 312 313 316 320 323 325 326 327 328 330 331 331 331 331 330 331 331 332 331 331 331 331 331 330 330 331 330 330 331 332 332 331 331 331 332 333 332 331 330 330 330 330 329 329 329 328 327 326 326 326 323 321 322 321 320 320 319 318 317
313 313 313 311 312 312 312 313 312 311 311 313 315 314 314 315 315 315 315 315 315 315 316 315 315 316 316 316 318 319 319 322 320 317 316 315 315 314 311 310 311 313 318 321 324 325 327 328 329 330 330 330 330 330 330 331 330 330 331 331 331 330 330 330 330 330 330 331 331 332 332 332 332 333 332 331 331 331 330 330 330 330 330 329 327 326 326 326 323 321 322 322 321 320 318 317 317
313 313 311 311 314 312 310 313 312 312 311 312 315 314 315 315 315 315 315 316 316 316 316 316 317 318 317 318 320 320 319 320 319 317 316 314 315 315 312 310 310 310 312 316 319 323 325 326 327 328 329 329 329 329 329 329 330 330 330 330 330 329 329 329 329 329 329 329 329 329 329 330 330 331 331 330 330 331 331 330 330 330 330 329 328 327 326 326 323 321 322 323 322 319 318 317 316
314 316 313 313 316 313 312 314 312 312 312 312 313 312 312 314 314 315 315 315 316 316 315 314 315 315 316 316 317 317 316 316 317 316 316 315 315 314 313 312 310 310 310 312 314 318 321 323 325 327 327 328 328 328 328 328 328 329 328 328 328 328 328 328 327 327 328 327 327 328 327 328 328 329 331 331 331 331 330 329 329 330 329 329 328 328 328 327 325 323 322 322 322 320 318 318 316
312 316 316 314 315 314 314 315 313 312 312 313 314 310 309 313 314 314 315 314 313 314 313 313 314 314 314 314 314 314 314 314 314 314 315 315 314 313 313 312 311 310 309 309 310 312 315 319 322 324 325 326 326 327 327 327 327 327 327 327 327 327 326 326 326 326 327 326 326 326 327 327 328 329 330 331 331 330 327 327 328 329 329 328 328 328 328 326 324 323 323 322 321 320 319 317 316
310 316 318 314 314 316 316 315 313 311 311 313 313 310 308 311 314 315 315 313 313 313 312 312 313 314 315 315 316 317 316 315 315 314 313 313 312 312 312 313 313 312 310 309 309 309 311 314 318 321 323 324 324 325 325 325 325 326 326 326 326 326 326 326 326 326 326 326 326 326 326 326 327 328 329 329 330 329 328 328 329 329 329 328 328 327 326 325 324 324 323 323 322 321 319 317 316
313 318 319 315 314 317 317 316 314 312 313 313 313 314 311 309 313 315 315 313 313 313 313 313 314 315 316 316 317 317 317 316 316 316 313 311 311 311 312 315 315 314 312 310 308 307 309 312 314 316 320 322 323 324 324 324 324 325 325 325 324 324 325 326 326 325 325 325 325 325 325 325 326 326 327 327 328 328 328 329 329 329 329 328 327 327 326 325 324 324 324 324 322 321 319 317 317
316 318 317 316 316 318 318 316 314 313 313 312 313 315 311 309 312 314 314 312 312 313 314 315 315 317 316 316 316 315 315 314 313 313 313 312 312 313 315 316 315 314 312 311 308 306 309 311 311 313 318 321 322 322 323 323 323 324 324 324 324 323 324 325 325 325 324 324 324 324 324 324 325 325 325 325 326 326 326 326 327 327 326 326 326 326 327 326 325 324 324 323 322 321 320 318 317
315 314 316 316 317 318 318 316 314 313 313 312 314 314 311 309 310 312 313 311 312 313 314 316 316 316 316 315 315 314 314 314 312 311 314 316 315 315 315 315 314 313 312 312 310 309 310 312 313 316 319 321 321 321 321 323 323 323 324 323 323 323 323 323 323 324 323 323 323 323 323 323 323 323 323 323 323 324 324 324 324 324 324 325 326 327 327 326 325 325 324 323 322 322 321 319 318
314 315 316 316 316 315 315 315 313 312 313 313 314 314 312 309 309 312 314 311 312 314 314 316 316 315 315 314 314 313 313 315 314 313 315 316 315 315 315 315 315 313 312 314 314 313 313 316 317 319 321 321 321 321 321 322 322 322 323 323 323 323 323 323 322 322 322 321 321 321 321 322 322 322 321 322 322 322 322 322 322 322 322 323 324 325 325 325 325 325 324 323 323 322 321 320 319
316 317 315 314 314 313 313 312 312 313 314 311 311 313 314 310 309 311 313 311 312 314 314 315 315 315 314 313 313 312 313 314 315 315 315 315 315 315 316 316 316 315 316 317 317 317 318 319 320 320 320 319 319 319 320 321 321 321 322 322 322 322 322 322 322 322 321 321 320 320 320 321 321 320 319 319 320 320 320 320 320 320 321 321 321 322 322 322 322 323 323 323 322 321 320 319 318
316 315 312 313 313 314 314 313 313 314 312 309 309 312 314 311 310 312 313 311 311 313 315 315 315 314 314 313 313 313 313 315 316 316 316 316 317 317 317 317 317 317 317 317 317 318 319 320 320 318 318 318 318 319 320 320 320 320 321 321 321 321 321 321 321 321 321 321 321 320 319 320 319 319 318 318 317 318 318 318 318 318 318 319 319 319 319 320 320 321 321 321 321 320 320 319 318
314 313 312 312 313 315 316 314 314 313 311 308 308 311 312 310 311 313 313 312 312 312 314 314 313 313 313 312 312 313 314 315 316 317 317 317 317 318 317 317 317 317 317 317 317 317 317 319 319 318 317 318 318 318 319 320 320 320 320 320 320 320 320 320 320 320 320 321 320 320 319 319 319 319 319 318 317 317 317 316 316 316 316 316 317 317 317 317 318 318 319 319 319 318 318 318 318
314 316 314 312 312 314 315 314 314 314 311 308 308 311 311 309 311 312 312 311 311 311 311 312 311 312 312 311 311 313 314 314 315 316 316 316 317 316 316 316 316 315 315 315 315 315 316 317 318 317 315 316 316 316 317 318 318 318 317 317 318 318 318 318 318 318 319 319 319 319 318 318 318 318 318 318 317 316 316 315 315 315 314 315 315 315 315 315 315 316 316 317 317 317 317 317 317
315 316 315 314 313 313 312 312 312 312 312 310 309 310 311 311 312 312 312 311 310 311 311 311 311 312 312 312 312 314 314 314 315 315 314 314 315 315 315 315 314 314 313 313 313 314 314 315 315 314 313 313 314 314 314 314 315 314 313 313 313 314 314 314 315 315 315 315 315 315 315 316 316 316 315 315 315 314 314 314 314 314 314 314 314 314 314 314 314 314 314 315 315 315 315 315 315
314 313 314 313 314 313 311 310 309 309 311 312 312 311 311 311 313 313 312 311 310 311 310 310 311 312 312 313 315 315 315 315 315 315 314 314 314 314 314 313 313 313 312 311 311 312 312 312 312 312 311 311 311 311 311 311 311 311 311 311 311 311 311 311 312 312 312 311 311 312 312 313 313 313 312 312 312 312 312 312 312 313 313 313 313 313 313 313 313 313 313 313 313 313 313 313 313
313 312 314 312 312 312 310 310 310 310 311 311 311 312 309 308 311 312 312 311 311 311 310 310 312 312 312 314 317 316 315 315 315 314 313 313 313 313 312 312 311 311 310 309 310 310 310 311 311 310 310 310 310 310 310 310 310 310 310 310 310 310 310 310 310 310 310 310 310 310 310 311 311 311 310 310 311 311 311 311 311 311 311 311 312 311 311 311 311 311 311 311 311 311 312 312 312
312 312 315 312 312 312 310 311 312 312 312 311 310 310 309 309 310 311 312 312 312 312 311 311 312 312 312 314 317 316 315 315 314 314 313 313 313 312 311 310 309 308 308 307 308 308 309 309 309 309 309 309 309 309 309 309 310 310 310 309 309 309 309 309 309 309 309 309 309 309 309 309 309 309 309 309 309 309 309 309 309 310 310 310 310 310 310 310 310 310 310 310 310 310 310 310 310
310 311 313 312 313 312 311 312 311 311 312 311 311 310 309 311 311 311 312 312 313 312 312 312 312 312 313 315 317 316 315 315 314 314 313 313 312 311 310 310 309 308 308 307 307 307 307 307 308 308 308 308 308 308 309 308 308 308 308 308 308 308 308 309 309 309 309 308 308 309 308 308 308 308 308 308 308 308 308 308 308 308 308 308 308 308 309 309 309 309 309 309 309 309 309 309 309
310 311 311 311 312 311 311 312 311 311 311 310 312 311 309 311 312 312 312 312 313 313 313 314 314 313 313 315 317 316 315 315 315 314 313 312 311 310 309 309 308 308 308 307 307 306 306 306 307 307 307 307 307 308 308 308 308 308 307 307 308 308 308 308 308 308 308 308 308 308 307 307 307 307 307 307 307 307 307 307 307 307 306 306 306 306 307 307 307 307 307 307 308 307 307 307 307
313 312 312 312 313 312 313 314 312 311 310 310 311 311 310 312 313 313 311 311 312 314 315 317 315 314 315 316 316 316 315 315 315 313 312 311 311 309 309 309 308 308 308 307 307 306 306 306 306 306 306 306 307 307 307 307 307 307 307 307 307 307 307 307 307 307 307 307 307 306 306 306 306 306 306 306 306 306 305 306 306 305 305 305 305 305 305 305 305 305 305 305 305 305 305 305 305
Wind_Speed
2 4 5 3 2 5 5 3 3 2 3 2 3 3 4 4 4 6 7 5 4 5 4 3 4 3 1 4 5 5 8 8 6 2 2 5 12 14 12 14 17 17 15 14 15 15 13 12 11 10 9 9 9 10 11 12 12 11 11 11 11 11 11 10 8 9 11 11 12 12 14 13 13 13 13 14 14 14 14 14 16 15 16 16 16 16 16 16 16 16 16 16 16 15 14 14 14
2 3 4 3 3 5 1 1 4 2 3 2 4 2 6 5 4 6 7 5 5 7 4 3 4 2 2 5 3 1 7 9 8 6 6 10 15 12 12 16 17 16 15 15 15 15 13 12 11 10 9 9 10 10 11 12 13 11 11 11 12 11 11 10 9 10 10 12 14 14 14 13 13 14 14 14 14 14 14 14 15 15 15 15 16 16 15 15 15 15 16 16 16 15 15 15 14
3 3 4 4 5 4 1 2 5 2 3 3 5 4 6 5 5 6 7 7 8 9 6 4 3 2 3 3 2 2 5 7 8 8 7 12 13 11 14 16 16 16 15 15 15 15 14 12 11 10 9 9 9 10 11 12 13 12 11 11 11 11 11 10 9 10 10 13 16 14 14 13 13 14 14 14 14 14 14 14 15 15 14 14 15 15 14 14 14 15 15 15 15 15 15 14 13
4 4 4 5 4 3 3 4 4 3 3 2 5 5 5 4 6 8 9 9 8 7 6 5 4 1 4 3 4 2 5 7 7 7 7 9 10 14 17 17 16 15 15 14 14 15 14 13 12 10 9 9 8 9 10 12 13 13 11 10 11 10 10 10 8 9 9 13 15 14 14 13 13 13 13 14 14 13 13 14 15 14 13 14 14 14 14 14 14 14 14 14 14 14 14 14 13
3 3 4 5 3 2 3 2 3 4 1 2 4 6 5 4 8 9 9 7 6 5 5 5 3 3 2 4 4 2 5 7 6 6 9 10 12 18 18 17 17 15 14 13 14 15 14 13 12 10 9 9 8 9 10 11 12 12 11 10 10 10 10 9 8 8 7 12 16 14 13 13 12 13 13 13 13 13 13 14 13 13 13 13 14 14 13 14 14 14 13 13 13 13 14 13 13
4 4 3 4 2 1 3 3 4 4 3 4 3 6 5 5 8 10 9 7 5 2 2 4 1 2 2 1 2 4 5 5 7 7 10 12 14 18 18 18 16 15 14 13 14 14 14 14 12 11 10 9 8 9 9 10 11 11 12 12 10 10 10 9 8 8 8 12 15 13 13 12 12 12 13 12 12 13 12 12 12 13 12 13 13 13 13 13 13 13 13 13 13 13 13 12 12
5 4 3 3 2 1 4 4 4 2 4 5 4 5 5 6 8 10 10 7 4 2 2 3 1 2 2 4 2 5 5 4 7 7 10 14 16 17 18 17 16 15 14 13 13 13 14 15 13 12 10 9 8 8 9 9 10 11 13 13 12 10 10 9 7 8 10 12 13 12 13 12 12 12 12 12 12 12 12 12 12 12 12 13 13 13 13 13 12 12 12 12 12 12 12 11 11
6 3 1 3 3 2 5 4 2 1 3 3 3 4 4 7 8 9 9 6 5 5 5 4 2 4 2 2 1 6 6 6 8 9 12 16 17 18 18 17 16 15 14 14 13 13 15 15 14 12 11 10 8 8 8 9 10 11 12 12 12 11 10 10 7 8 9 10 10 11 12 12 12 11 11 11 11 12 11 12 12 12 12 12 13 13 12 12 12 12 11 11 11 11 11 10 10
5 3 1 3 4 3 5 4 1 2 3 3 3 3 4 6 7 8 8 5 5 6 7 6 4 2 3 3 2 6 7 7 9 10 13 16 17 18 17 16 17 16 15 14 12 13 15 16 14 13 12 10 8 8 8 8 9 10 10 11 11 11 11 10 9 9 8 8 7 8 9 10 11 11 10 11 11 11 10 10 10 11 12 11 12 12 11 11 11 11 11 10 10 10 10 9 9
5 3 2 4 4 4 5 4 2 2 4 3 3 5 5 6 6 7 8 6 6 6 6 5 4 3 1 2 4 5 7 9 10 11 14 16 17 17 16 16 16 16 15 14 12 12 14 16 15 13 12 10 9 8 7 8 8 9 9 9 9 10 11 10 10 10 8 7 6 6 7 8 11 10 10 10 10 11 10 11 10 10 11 11 10 10 10 11 11 10 10 10 9 9 8 8 8
5 2 2 4 4 5 5 4 3 3 5 4 4 5 5 8 6 6 7 6 6 5 6 5 4 4 3 1 4 6 9 11 12 14 15 15 16 16 16 16 15 16 15 14 13 12 13 15 15 13 12 10 9 8 8 7 8 8 8 8 9 9 10 10 10 10 9 8 7 7 7 8 11 11 10 9 9 10 10 10 10 10 10 9 9 9 9 9 10 10 9 9 8 8 7 7 8
5 4 3 5 6 5 3 2 3 4 4 5 5 6 5 8 7 7 7 6 6 5 7 7 1 1 5 2 4 8 11 11 13 15 16 15 16 14 14 15 15 15 14 14 13 13 12 13 14 13 12 11 9 8 7 7 7 8 8 7 8 8 9 8 8 8 8 7 7 7 6 8 12 12 10 9 9 10 10 10 9 9 9 9 9 8 8 8 9 9 9 8 8 8 7 7 9
4 5 6 5 4 3 1 1 3 3 4 4 5 7 6 8 8 7 7 6 7 6 6 7 1 1 4 3 5 8 10 12 14 16 16 15 15 13 13 14 14 14 14 14 13 13 12 13 12 12 12 11 9 8 7 7 7 7 8 7 7 7 7 7 6 6 6 6 5 6 5 7 13 13 10 10 9 10 9 9 8 7 8 8 8 8 7 8 9 9 9 9 8 8 7 8 8
3 2 5 4 1 2 2 1 3 3 4 6 6 7 7 6 4 4 6 6 6 3 4 4 1 2 2 3 5 6 10 14 15 16 16 14 14 13 11 12 13 13 13 14 13 13 13 13 12 11 12 11 9 8 7 7 7 7 7 7 6 5 5 5 5 5 5 5 4 5 5 6 12 14 12 10 9 10 9 9 8 7 8 7 7 6 5 7 9 9 9 8 8 8 8 8 8
2 1 4 3 3 4 3 2 2 4 4 8 6 8 7 3 1 3 4 4 4 5 4 3 0 1 1 1 3 5 13 17 16 16 16 14 14 13 11 12 13 13 13 13 13 13 13 13 12 12 12 11 10 9 8 7 7 7 7 7 6 5 4 4 4 4 4 4 4 5 5 6 11 14 13 11 9 10 10 9 8 7 7 6 5 4 5 7 8 8 8 7 7 7 7 7 6
2 2 4 4 4 5 5 3 2 3 4 8 6 7 8 4 2 3 1 2 4 5 3 3 2 1 4 4 6 8 15 18 16 17 16 15 14 13 12 12 13 13 12 13 14 14 13 13 13 12 12 12 11 10 9 8 7 7 7 7 7 6 5 4 3 3 3 4 4 4 5 6 9 13 12 10 10 10 9 8 7 6 5 4 3 4 6 7 7 7 7 7 6 6 6 5 4
2 3 5 5 5 5 6 6 4 2 6 9 7 8 8 6 3 1 2 3 3 6 4 4 4 0 5 7 7 9 15 16 16 18 17 16 15 14 14 14 14 13 13 14 14 14 14 13 13 12 13 13 12 11 10 9 8 8 8 8 8 7 6 5 4 3 3 3 4 5 6 6 7 11 10 8 9 10 9 9 8 6 4 3 3 5 6 6 6 6 6 6 5 3 2 2 2
3 5 6 6 6 5 6 6 3 3 7 9 9 10 8 7 7 3 3 5 4 5 6 5 5 4 7 10 9 10 13 14 17 18 18 17 16 16 15 15 16 14 14 15 15 15 15 15 14 13 12 13 12 11 9 9 9 8 8 9 8 8 8 6 5 4 4 4 4 6 6 6 6 8 8 8 8 8 8 8 8 6 3 2 2 3 5 5 5 6 6 6 5 2 1 1 1
5 5 5 6 5 4 4 5 4 2 6 9 9 10 6 5 9 6 5 8 8 7 7 8 7 8 10 11 11 12 12 15 17 18 18 18 17 17 17 16 16 16 15 15 15 16 16 16 15 14 12 12 12 11 9 9 10 9 9 9 9 9 8 8 6 6 6 5 5 6 6 6 7 7 8 10 9 8 8 8 8 6 4 2 1 1 3 3 3 5 6 5 5 3 2 2 0
4 4 5 5 5 6 4 5 6 4 5 9 9 8 5 4 7 7 6 7 8 8 7 8 9 10 11 12 13 13 14 16 17 17 18 18 17 16 17 17 17 17 16 15 15 16 17 17 16 15 14 13 13 11 10 9 9 10 10 10 9 9 8 8 8 8 8 7 6 6 6 7 8 6 9 11 11 9 8 9 8 7 5 4 2 1 2 2 3 4 5 5 5 3 2 2 2
3 4 4 3 8 6 5 5 5 5 3 5 9 7 7 5 5 6 6 6 7 8 8 8 8 10 13 14 14 15 15 16 17 18 18 18 17 15 15 15 16 15 15 15 15 16 17 17 17 16 15 14 14 13 12 11 10 11 11 11 9 10 10 9 10 9 9 9 8 7 6 7 8 6 8 10 10 8 7 8 8 7 5 4 3 2 2 2 2 3 3 4 3 2 3 3 3
3 5 3 2 5 5 7 5 4 4 1 4 8 8 7 6 5 7 8 6 2 2 3 4 2 5 13 15 15 16 15 16 18 19 19 19 18 16 15 14 14 14 15 15 15 16 17 17 17 17 16 16 15 14 13 13 11 11 12 12 11 11 11 10 10 10 10 10 9 8 7 8 8 6 8 10 9 8 8 8 7 7 7 6 5 5 4 3 3 4 4 3 3 4 4 4 4
4 5 1 3 2 3 6 5 3 3 4 6 7 6 6 7 7 6 8 7 3 8 7 7 5 5 12 16 15 15 15 16 18 20 20 20 20 18 16 14 14 15 16 16 16 15 16 17 17 17 17 17 17 16 14 13 12 12 12 12 12 12 11 11 11 11 10 11 10 10 9 8 8 7 8 10 9 9 9 9 8 8 8 8 7 6 6 6 5 5 5 5 5 6 5 5 5
6 4 5 1 4 4 4 4 3 2 4 4 3 4 6 8 6 3 7 9 4 8 7 7 6 5 9 14 14 15 16 17 19 20 19 19 19 18 16 14 14 15 16 16 16 16 17 17 18 18 17 17 17 16 15 14 13 13 14 13 12 12 12 11 12 12 11 11 11 11 10 9 9 8 9 10 10 10 9 9 9 8 8 8 8 7 8 7 6 6 7 7 7 7 6 6 5
9 4 5 3 3 5 4 4 3 2 2 3 3 5 4 3 0 1 8 8 6 7 5 5 5 6 7 10 12 13 14 17 17 17 18 17 17 17 17 15 13 14 15 15 16 17 17 18 18 18 18 17 17 16 16 15 14 14 14 13 12 13 13 12 12 12 12 12 12 11 11 10 10 9 9 10 11 10 10 10 10 9 9 9 9 8 8 8 6 7 8 8 8 6 6 7 6
6 2 5 4 3 4 3 3 3 2 2 3 6 6 3 2 2 5 10 5 7 6 4 5 5 5 7 8 10 12 12 15 17 17 18 16 15 17 18 17 15 15 15 15 15 16 17 18 19 19 18 18 17 16 16 16 14 13 14 12 13 13 12 12 12 11 12 12 12 12 12 12 11 11 11 10 11 11 11 11 11 10 10 10 10 9 9 8 7 8 8 8 8 7 7 7 7
4 6 6 5 4 3 1 2 3 2 3 3 5 5 3 3 1 6 6 5 6 5 6 6 6 7 7 8 9 11 12 14 16 16 16 16 16 17 18 18 17 16 15 15 16 16 17 18 19 20 19 19 18 17 16 16 15 14 14 13 13 14 13 13 12 11 11 12 13 13 13 13 13 12 12 12 12 11 12 12 12 12 11 11 12 11 10 11 10 9 10 10 8 8 8 8 8
5 9 7 5 3 3 1 2 4 2 3 3 3 2 3 3 3 5 4 6 4 7 8 7 7 7 8 8 8 8 10 12 14 15 16 18 17 17 18 18 18 17 16 16 16 16 17 18 19 20 20 19 19 18 15 14 15 15 15 13 13 14 15 14 13 13 12 13 14 14 14 14 14 13 13 14 13 13 12 12 13 13 13 14 15 14 13 14 13 12 13 13 11 11 9 9 11
6 9 6 5 3 4 3 3 3 2 2 3 2 2 5 7 10 7 6 5 4 5 7 7 8 7 7 8 7 7 9 11 13 15 16 18 17 18 19 18 18 17 16 16 16 17 17 18 19 20 20 20 19 18 16 15 15 15 15 14 14 15 16 15 15 14 13 14 16 16 16 14 13 14 14 15 15 14 13 13 13 14 16 16 16 16 17 16 15 15 16 16 15 15 15 13 13
6 7 5 6 5 6 6 4 3 2 2 2 3 4 7 12 15 8 8 5 4 5 7 6 7 7 7 7 7 7 9 11 13 15 16 17 17 17 18 17 18 17 15 15 17 18 17 17 18 18 20 22 20 20 20 18 17 17 15 14 15 17 18 17 16 15 14 14 16 18 19 16 14 13 14 16 15 15 15 14 13 14 17 19 19 18 18 18 17 18 18 18 18 18 19 18 15
6 5 4 6 6 5 7 5 6 5 2 2 4 5 7 7 11 8 6 5 6 7 8 7 7 6 7 7 7 7 9 12 14 15 15 16 16 16 16 17 18 18 16 16 18 19 18 17 17 18 19 21 21 21 22 21 19 18 16 15 16 17 18 18 17 15 15 16 16 18 20 19 16 14 14 15 15 15 16 15 14 13 15 18 21 21 20 20 19 20 20 19 19 19 20 20 16
6 5 6 7 6 5 7 5 6 4 3 5 6 6 8 4 8 6 3 4 6 8 9 8 7 7 7 6 7 7 8 12 14 14 15 16 16 15 16 17 18 19 18 17 17 18 19 18 18 17 18 20 21 20 21 20 19 18 17 16 17 16 17 18 18 17 16 17 17 18 21 22 20 17 15 14 15 15 16 17 17 15 16 18 21 23 23 22 21 21 21 21 20 18 19 18 16
6 7 7 7 7 5 5 4 4 2 3 8 9 5 6 3 7 4 3 4 6 8 8 8 8 7 7 6 6 7 7 10 12 14 16 16 17 16 16 16 18 19 19 17 16 18 19 19 19 18 17 19 20 19 19 19 18 18 17 17 17 17 16 16 17 18 18 19 19 19 22 24 24 23 20 18 16 15 15 18 22 22 21 23 23 25 26 24 22 21 22 23 22 18 15 15 15
7 7 6 6 9 7 4 3 3 4 4 8 10 8 9 3 5 5 5 5 5 7 7 8 7 7 7 6 6 7 7 8 9 13 17 18 17 17 16 16 17 18 18 18 17 17 18 18 19 19 18 17 18 18 18 18 17 17 17 16 16 17 17 16 16 17 17 19 20 22 24 24 26 27 26 24 18 15 15 16 19 21 20 19 19 22 26 25 24 25 25 24 24 21 15 13 14
8 8 7 5 8 11 8 3 5 8 6 7 9 10 14 11 4 6 7 7 6 6 6 6 6 7 7 7 7 8 8 9 9 11 15 17 17 16 16 16 17 17 17 18 18 17 17 18 18 18 19 17 16 17 17 17 16 16 16 16 16 17 17 16 17 18 18 18 19 21 24 25 26 26 26 25 19 15 17 15 15 17 16 16 16 18 22 25 27 28 29 26 24 22 18 14 14
10 10 9 6 6 9 6 4 3 6 6 8 12 11 13 14 11 8 8 9 7 7 6 6 6 7 7 7 8 8 9 9 8 8 10 12 13 14 14 14 16 17 17 17 18 19 18 18 18 18 19 18 16 16 16 16 16 16 16 16 17 18 17 17 17 18 18 19 19 18 19 20 22 24 25 26 20 16 18 17 18 20 20 20 20 21 24 26 28 30 30 28 23 20 21 20 18
9 10 10 7 6 6 5 6 3 2 5 9 13 13 13 13 13 11 8 9 9 9 9 9 8 8 8 9 8 9 10 7 6 8 8 9 10 11 12 13 14 15 16 17 18 20 20 19 19 18 18 18 18 17 16 17 16 16 16 16 17 17 17 17 17 18 18 19 20 21 21 19 19 21 23 24 22 20 20 18 20 24 23 20 19 24 27 24 25 28 28 28 25 23 24 24 24
6 7 8 8 7 4 4 5 4 2 3 7 9 11 14 13 12 12 10 10 10 10 11 12 12 11 9 10 10 10 8 4 5 6 8 9 10 11 13 14 15 15 16 18 19 20 20 19 19 19 17 18 19 18 17 17 16 15 14 14 15 15 16 16 17 17 17 18 19 20 22 23 22 22 22 22 22 25 26 24 24 26 25 22 19 21 23 22 22 24 24 25 25 26 27 23 24
5 5 6 7 5 4 4 4 5 4 3 3 3 6 12 13 13 13 13 13 12 11 12 12 12 11 10 10 9 8 8 6 6 7 8 9 11 12 13 14 16 15 15 16 17 17 18 18 18 18 17 17 18 19 18 16 15 14 12 11 11 11 12 14 16 16 16 18 19 18 16 17 19 20 21 22 24 27 27 27 27 27 26 25 24 23 24 25 24 23 24 25 24 25 26 22 24
6 5 6 5 5 5 3 5 6 4 4 2 3 6 9 11 12 13 14 13 10 8 8 8 7 8 8 7 4 4 7 7 6 7 7 9 11 11 12 13 14 15 14 15 16 16 16 17 18 17 17 17 17 18 19 15 13 12 12 10 9 9 10 11 13 14 16 18 20 21 20 19 18 18 19 21 23 24 24 25 27 28 28 27 28 28 28 28 26 24 24 26 25 23 23 23 26
7 6 7 4 6 5 1 5 7 3 4 3 4 6 8 10 12 13 10 6 7 6 6 7 7 8 7 5 5 5 7 7 6 7 7 8 10 10 11 12 13 15 16 16 17 17 16 16 16 16 16 16 15 16 17 15 12 12 12 11 10 11 12 12 12 12 14 15 16 18 20 21 21 20 21 21 19 19 20 22 24 26 28 29 31 31 31 30 28 26 23 23 24 24 25 25 25
6 7 8 3 3 5 6 7 6 2 5 5 3 5 6 6 12 13 6 4 7 7 7 10 9 8 7 6 7 7 7 7 7 7 6 6 7 8 8 10 13 15 16 17 18 17 16 14 15 15 14 14 14 15 16 16 14 13 13 13 12 13 13 13 12 11 11 11 12 13 15 17 18 21 22 22 21 21 22 24 25 27 28 30 30 31 30 28 26 26 24 23 24 26 26 25 24
6 4 6 3 0 3 7 7 5 3 2 2 3 6 5 3 7 9 6 5 8 7 7 10 8 7 7 6 6 5 5 6 6 6 6 5 6 7 8 10 11 12 13 16 18 17 16 14 14 15 14 13 14 15 16 16 15 14 15 14 14 13 12 10 10 10 9 9 9 10 12 13 14 17 18 19 21 22 23 24 25 25 27 27 25 25 26 25 24 26 27 27 27 26 26 25 25
3 1 2 5 4 5 8 7 6 3 1 2 3 5 5 5 4 5 5 5 7 8 9 9 7 7 6 5 4 4 4 4 4 5 6 6 8 9 9 9 8 9 12 15 17 18 17 15 15 15 14 12 13 15 16 17 15 14 15 14 13 13 11 9 7 8 8 8 9 9 10 10 12 13 14 15 17 18 18 19 19 19 21 21 19 20 22 23 24 25 25 26 26 26 26 28 29
1 2 1 4 3 5 7 6 5 1 1 4 6 4 4 7 4 4 4 5 9 10 11 10 8 6 5 4 3 3 3 3 4 4 4 5 7 8 7 7 7 9 11 12 14 16 17 16 16 15 13 12 13 15 16 16 15 13 13 13 13 13 11 9 7 7 7 8 9 9 9 9 10 11 13 14 16 18 19 19 20 19 19 19 20 22 24 25 24 23 23 23 25 26 27 29 30
3 3 3 5 3 2 4 5 4 2 4 7 6 7 5 6 5 5 4 5 9 10 8 8 7 5 3 2 2 2 2 2 3 4 3 4 5 6 6 7 7 8 10 11 12 14 15 16 15 14 13 11 12 14 14 14 13 12 11 12 12 11 10 8 8 7 8 8 9 9 9 9 9 10 11 12 14 16 17 18 21 21 19 19 20 21 23 25 25 25 26 26 26 26 28 29 31
7 7 6 6 4 3 2 3 2 4 7 4 3 3 4 5 5 5 3 2 4 6 5 6 5 4 3 2 1 1 1 2 3 3 4 4 5 5 6 7 7 8 9 10 11 13 15 14 14 14 12 11 12 13 13 12 12 11 11 11 11 10 9 8 7 8 8 8 8 9 9 9 9 9 9 9 11 11 12 14 17 19 20 22 22 21 21 21 22 25 27 27 27 27 28 29 32
5 5 6 5 3 3 3 3 3 6 6 1 2 1 3 6 5 2 1 2 2 2 3 6 6 5 4 2 1 1 1 2 3 3 4 5 5 6 7 8 9 9 9 10 11 12 13 12 13 14 13 12 13 12 11 11 11 11 10 10 10 9 9 9 8 8 8 8 8 8 8 9 9 9 8 9 10 10 11 12 13 16 18 20 23 24 25 24 23 23 23 24 25 26 28 29 30
3 5 7 6 4 4 5 5 5 7 3 2 1 0 3 7 8 7 5 3 3 2 1 4 6 5 4 3 2 2 2 2 3 4 5 5 6 7 8 9 9 9 9 10 12 13 13 13 13 14 13 12 12 11 10 10 9 9 9 8 8 8 8 8 8 8 8 7 7 7 7 7 8 8 8 9 9 9 9 10 11 12 13 14 16 17 20 22 22 22 22 23 23 24 26 27 30
7 8 8 7 6 5 6 6 5 6 1 2 1 1 3 6 7 9 9 4 4 4 2 3 4 3 3 2 2 2 2 2 3 4 5 5 6 7 8 9 8 9 10 11 14 15 16 13 11 13 14 12 12 11 10 10 8 8 8 7 7 7 7 7 7 7 7 6 6 6 6 7 7 8 8 8 8 7 7 8 8 8 9 9 10 11 12 14 15 18 19 20 22 23 23 25 28
7 4 4 6 6 5 5 5 5 4 2 2 2 2 5 4 1 2 2 2 3 4 4 3 3 2 2 1 1 2 3 3 3 4 5 5 6 7 8 8 8 9 9 11 13 15 14 13 11 13 14 13 12 12 11 10 8 8 8 8 8 7 7 6 5 5 5 5 5 5 6 6 7 7 6 7 7 6 7 8 8 8 8 8 8 9 10 11 11 13 14 16 18 20 21 24 26
3 1 2 5 4 1 2 0 1 1 1 2 4 3 5 3 2 3 4 4 2 3 4 2 2 2 1 1 3 4 4 4 4 4 5 6 6 7 7 7 8 9 11 12 13 14 14 14 14 14 14 14 13 12 12 11 9 9 8 8 8 7 7 6 5 6 6 8 8 7 6 6 7 7 7 8 9 8 6 7 8 8 8 9 9 9 10 11 11 12 13 13 14 17 19 22 24
2 2 3 3 1 2 2 1 2 0 4 3 5 4 4 4 6 5 5 6 6 5 4 5 4 4 3 3 4 5 5 5 4 5 5 5 6 6 6 7 6 8 11 13 14 15 15 15 15 15 14 14 13 13 12 11 9 8 7 6 6 6 6 6 6 7 7 7 7 7 6 6 7 8 9 9 9 8 6 6 7 8 8 9 9 10 10 11 11 12 13 14 14 16 18 20 22
2 3 4 2 1 1 1 2 1 2 6 3 4 6 5 4 4 2 5 6 8 8 7 6 6 6 5 5 6 6 6 6 5 6 5 5 6 6 5 6 6 7 10 13 14 15 16 15 14 14 15 14 13 13 11 11 9 8 7 6 5 4 4 4 4 4 4 3 3 3 3 4 6 7 8 8 7 6 6 7 7 7 7 8 8 9 9 10 11 12 13 14 15 15 16 19 20
0 2 1 1 2 3 3 3 3 4 6 4 5 7 6 5 5 2 5 8 9 10 9 8 9 8 6 6 7 8 7 6 6 6 5 5 5 6 6 6 7 8 11 13 14 15 15 15 15 15 14 14 13 12 11 10 9 8 7 5 4 4 3 2 2 1 1 0 0 1 2 3 4 5 6 7 7 6 6 6 6 6 6 7 8 8 8 9 10 11 12 13 13 13 15 17 18
0 1 1 0 1 3 3 4 4 4 5 5 4 5 4 6 7 7 7 9 10 13 12 10 10 9 8 8 8 8 7 6 6 6 5 5 6 7 7 7 8 9 11 12 14 15 15 15 15 15 14 13 13 12 12 11 9 8 7 6 6 5 4 3 2 2 1 1 1 1 2 3 4 5 5 6 7 6 6 6 6 6 6 7 7 8 8 9 10 11 12 13 13 13 15 17 18
4 4 5 4 2 1 1 3 3 3 5 6 5 5 4 3 6 9 10 7 8 11 12 9 8 9 9 9 9 8 7 7 6 6 6 6 7 8 8 8 8 9 10 11 13 15 16 15 15 14 14 14 14 14 13 12 11 11 10 9 8 7 6 6 5 4 3 3 3 3 3 3 3 3 4 5 6 6 6 6 6 6 7 7 8 8 8 9 10 11 12 13 14 15 16 18 19
4 5 7 7 5 4 3 4 3 1 3 4 4 5 3 1 2 5 5 2 1 3 6 6 7 8 9 9 10 9 8 8 7 6 6 6 8 8 8 8 8 9 9 10 12 14 15 15 15 15 15 15 15 15 15 14 14 13 12 11 10 10 9 8 8 7 6 5 5 5 5 5 5 5 5 6 6 7 8 8 8 8 8 8 9 9 9 9 11 12 13 14 15 16 17 18 20
Wind_Direction
257 223 198 201 246 271 257 247 256 190 251 254 111 143 116 80 103 132 131 135 144 115 71 86 117 103 42 348 3 27 29 18 7 3 73 104 137 130 126 133 133 133 132 134 143 142 137 144 138 126 118 105 103 94 92 95 94 96 99 98 97 100 92 85 88 87 98 108 102 93 90 88 85 82 82 82 82 84 83 79 74 75 78 78 75 73 72 72 73 73 74 74 75 76 77 78 84
249 228 195 211 241 260 259 238 268 182 219 192 124 104 107 123 162 153 143 127 100 111 114 120 142 147 349 332 306 356 59 48 41 63 86 126 136 128 135 138 136 136 134 137 141 141 142 147 139 130 123 110 104 99 95 98 100 97 97 98 98 97 91 91 92 92 97 103 100 94 92 90 87 86 86 85 85 85 84 81 78 78 78 79 77 75 75 75 76 76 76 76 76 77 78 79 82
221 221 213 225 221 246 261 223 262 219 217 169 119 99 123 155 160 128 108 89 90 117 123 118 149 165 248 254 306 346 84 75 75 87 108 136 139 140 146 143 140 139 137 140 143 143 145 148 143 135 127 112 103 102 97 100 104 100 98 98 97 94 94 98 92 91 95 101 101 95 93 94 92 90 88 85 86 89 89 84 79 79 76 77 75 73 77 77 78 78 79 78 78 79 80 82 84
200 196 215 240 217 223 242 223 267 254 229 138 117 122 149 162 130 97 83 86 101 134 135 146 167 140 270 309 9 3 99 95 86 94 131 147 141 143 149 147 143 141 140 143 146 144 146 152 148 140 129 115 106 105 101 102 106 106 102 99 98 95 95 95 90 93 96 101 101 96 96 96 95 92 90 87 86 87 86 82 78 77 74 73 72 73 77 78 78 78 78 79 80 80 80 82 85
200 199 223 261 251 218 254 245 273 253 285 43 113 128 151 139 121 103 94 99 110 150 154 178 172 107 249 323 337 340 92 108 100 105 138 137 130 141 149 148 146 145 146 147 146 144 149 155 152 145 133 122 113 108 106 104 108 112 113 108 101 96 95 92 91 98 95 100 100 96 97 96 94 92 91 89 88 86 84 84 82 82 79 76 75 77 79 78 79 78 78 79 81 82 82 83 86
227 208 215 261 287 319 257 231 231 220 23 6 70 113 140 127 124 118 111 106 105 129 166 197 163 100 180 95 14 26 56 114 119 126 135 132 135 144 149 150 150 149 148 149 146 144 153 158 156 148 139 130 119 112 112 108 108 115 121 118 105 100 102 96 91 98 96 101 103 98 97 97 96 93 93 92 92 92 87 86 86 86 81 79 77 78 79 79 79 80 81 83 85 85 86 86 89
238 198 181 213 197 245 245 232 236 191 46 7 44 90 132 131 129 129 131 130 129 137 205 199 137 252 149 117 121 69 61 81 118 136 131 135 143 146 150 152 152 150 151 151 145 147 156 160 159 151 144 135 122 118 119 115 112 117 123 119 111 105 106 103 96 96 92 97 101 98 98 99 100 98 95 95 96 96 91 87 90 88 80 77 77 76 78 78 78 79 82 85 86 86 89 90 91
240 218 171 219 190 205 247 246 258 56 61 46 64 68 107 136 145 147 152 157 157 160 182 168 194 248 104 130 177 97 97 80 105 124 131 142 147 150 153 154 153 152 153 151 148 152 160 162 161 154 149 141 129 125 124 123 117 119 123 121 119 114 111 108 102 93 88 92 98 99 101 102 104 102 99 99 100 100 93 90 90 86 81 80 80 79 77 76 75 76 80 85 86 86 88 89 92
231 242 185 228 210 197 241 240 209 75 102 114 110 100 107 151 160 158 161 152 146 155 164 162 199 250 102 148 112 114 128 104 113 124 139 149 152 156 156 159 156 155 154 153 150 153 162 164 163 159 154 147 137 131 129 131 124 124 126 126 126 126 125 117 111 104 98 100 103 102 99 108 114 106 103 103 102 100 93 92 91 83 82 83 81 80 77 75 76 77 80 84 86 86 86 87 90
213 240 214 226 220 204 225 223 179 108 119 123 117 128 145 166 170 169 165 144 147 151 135 140 199 249 352 145 112 118 127 123 132 136 149 154 156 159 159 163 159 157 158 156 153 152 164 167 165 163 159 153 144 137 136 139 135 131 129 130 131 135 137 129 124 117 111 109 108 101 91 109 121 114 108 105 104 101 94 94 94 88 86 84 82 82 82 80 79 80 83 86 88 87 87 88 88
202 207 236 228 215 215 218 202 167 126 121 140 133 129 154 168 173 173 160 137 151 150 129 154 197 215 247 131 103 105 120 133 139 143 154 157 160 163 162 163 161 162 161 160 159 155 164 169 168 166 164 160 153 146 144 147 145 141 134 132 131 137 145 140 135 130 127 121 115 111 101 110 121 119 112 109 108 107 101 96 95 95 93 86 83 83 85 84 83 84 85 88 89 88 88 87 88
214 180 199 219 215 218 214 193 154 127 134 159 147 136 157 167 172 172 166 148 158 162 157 182 178 194 220 158 107 121 133 143 141 147 153 158 163 166 166 162 163 166 163 164 163 159 165 172 171 170 171 168 162 155 153 155 153 149 141 134 129 135 147 148 144 142 143 138 132 127 116 116 124 124 122 125 118 111 107 103 103 101 97 89 85 83 85 87 89 90 89 91 91 91 91 88 91
230 187 196 213 227 219 149 176 137 135 167 154 127 135 159 170 177 179 173 158 168 178 155 165 103 269 226 105 117 133 144 148 141 148 153 160 165 167 170 163 167 167 165 169 167 167 169 172 174 176 177 175 173 167 162 164 162 157 147 139 134 132 141 148 151 151 156 159 153 143 129 129 136 135 135 143 131 119 115 111 108 102 100 94 91 91 92 94 94 94 93 95 94 97 98 94 97
252 205 219 211 208 225 166 207 166 194 174 116 104 136 162 174 178 185 179 175 167 147 102 119 110 229 224 124 150 147 150 149 143 150 156 161 161 167 174 167 172 170 169 173 172 173 173 172 173 178 182 181 181 179 176 176 172 165 155 146 141 138 138 142 148 150 157 166 169 162 149 140 146 144 143 149 143 135 128 120 114 108 110 105 104 100 102 105 98 97 98 100 102 104 104 100 102
277 251 247 216 176 205 193 225 197 220 157 113 124 147 160 150 144 199 191 188 125 90 100 117 296 244 337 95 123 123 146 148 145 152 157 161 161 168 174 172 175 173 175 179 178 178 179 175 174 179 183 183 185 187 187 187 184 175 165 157 154 154 150 149 149 148 145 153 163 165 161 145 148 152 150 152 153 146 137 134 131 131 131 122 117 101 102 107 101 104 105 107 109 105 103 104 102
286 262 236 217 197 203 185 186 191 225 138 117 138 155 165 142 166 211 25 351 107 115 165 151 169 295 22 56 69 99 137 143 147 155 158 161 164 168 172 176 177 178 181 184 185 184 185 182 178 181 182 185 186 187 187 189 189 183 179 172 170 170 169 171 162 155 147 146 148 154 157 139 147 159 156 155 163 158 149 148 149 153 155 149 131 109 105 102 102 108 109 111 110 103 102 104 95
284 249 221 211 204 200 178 180 179 164 117 120 147 171 176 148 165 225 39 284 162 146 185 136 136 133 57 93 98 109 134 143 150 157 162 165 168 171 176 181 180 183 186 188 190 187 190 190 187 186 185 188 189 187 185 188 191 186 190 187 184 185 184 184 179 178 167 160 153 142 143 136 147 159 160 165 171 170 163 159 162 168 166 164 140 117 113 104 105 113 115 118 116 113 105 96 82
216 218 211 211 206 189 172 173 159 120 128 138 163 185 190 159 166 171 162 216 194 166 180 154 143 134 103 110 120 128 143 154 158 163 168 172 176 178 181 185 184 186 187 190 192 191 192 193 194 193 189 190 191 191 186 190 194 186 192 195 195 196 194 191 188 188 175 177 167 139 143 156 156 156 168 177 173 173 175 171 171 181 178 163 150 118 121 114 111 117 120 125 132 145 115 88 312
218 220 210 218 199 133 131 144 118 83 130 144 165 186 200 163 160 170 199 195 187 198 187 179 177 151 129 125 133 141 157 165 166 172 176 180 184 184 185 185 187 189 188 189 191 193 193 194 196 196 195 193 192 195 189 192 195 186 190 195 198 201 202 194 186 185 177 185 181 156 164 179 167 167 181 177 173 181 188 187 184 196 217 227 225 169 147 125 95 114 124 126 132 121 97 121 216
228 227 221 208 139 102 101 129 115 82 106 148 164 175 185 154 147 169 214 197 188 211 191 184 191 174 156 141 142 149 163 172 175 182 185 189 191 189 188 186 189 192 191 190 190 193 193 194 196 197 197 196 197 198 194 196 194 189 192 194 192 195 200 195 190 191 187 191 192 177 186 188 172 186 200 184 180 187 192 196 199 206 225 250 244 255 214 151 95 121 135 129 126 122 125 174 176
208 209 245 163 137 130 123 117 114 100 82 155 152 162 179 153 150 182 217 207 197 217 201 189 197 184 164 145 145 154 164 175 182 190 193 196 197 198 195 190 192 193 190 190 191 193 194 194 195 197 197 197 200 200 200 202 198 194 197 196 191 190 193 194 195 199 197 196 198 190 197 199 181 190 206 189 181 182 184 192 201 198 208 236 174 149 230 180 146 178 164 134 135 190 193 192 184
210 206 326 49 151 146 127 107 99 110 91 155 151 168 169 140 173 201 220 227 190 157 156 151 155 156 153 147 148 155 167 179 185 193 198 200 202 204 202 196 195 194 193 194 195 194 194 195 195 197 198 199 201 201 203 205 202 200 202 202 199 197 193 195 198 201 204 201 200 197 205 209 189 187 193 183 181 188 190 189 196 192 193 208 174 171 216 205 203 219 203 170 184 215 207 202 200
241 207 67 9 17 97 122 109 97 127 158 169 161 153 144 160 193 198 226 241 71 69 71 75 64 91 139 146 150 159 172 183 189 195 198 200 203 205 206 201 197 195 196 197 198 196 195 196 195 196 198 200 202 203 205 206 206 205 206 206 204 205 200 198 201 203 207 207 204 202 208 212 198 194 191 187 188 192 196 193 197 199 196 204 197 196 208 206 211 220 220 209 209 219 219 219 215
254 219 148 74 20 76 97 96 118 165 161 148 123 136 161 192 194 153 230 238 115 93 82 84 91 109 142 152 159 169 176 185 193 196 198 202 204 207 209 208 203 198 198 198 198 198 196 197 197 197 198 199 201 203 205 207 208 208 210 209 207 210 207 203 205 206 209 210 208 206 208 211 207 205 199 197 197 197 201 199 198 202 201 205 205 205 213 217 212 218 226 226 227 232 237 239 231
241 239 131 120 44 82 75 90 140 178 161 112 128 170 171 191 162 145 229 226 142 122 113 111 117 130 159 170 172 175 179 187 192 194 198 204 205 208 212 213 210 204 202 199 198 200 200 199 199 199 200 200 200 202 206 209 209 210 213 211 210 213 212 209 209 207 210 214 214 211 210 212 213 215 211 205 203 203 203 203 203 204 205 206 207 208 217 223 218 223 230 233 237 233 241 246 239
218 190 107 119 84 84 92 109 138 170 171 150 173 175 130 74 350 249 225 195 124 133 157 157 156 163 175 180 181 183 184 188 190 192 196 200 203 207 211 213 213 210 206 203 200 202 202 201 202 202 202 202 202 203 206 210 209 210 213 214 214 214 215 215 213 211 212 215 217 215 212 213 216 219 220 216 211 208 205 209 212 210 209 209 213 215 218 222 219 225 229 230 232 228 235 241 236
144 129 100 105 88 84 114 118 133 163 153 182 196 164 124 102 264 241 198 136 126 164 186 180 190 200 193 187 187 189 190 191 190 191 193 196 201 206 210 211 213 213 209 206 204 202 202 202 204 205 205 205 205 206 207 210 211 213 214 214 217 217 217 219 219 218 215 216 219 220 217 215 218 220 222 223 221 215 209 214 218 219 217 216 224 227 227 233 229 232 236 232 228 228 231 234 237
131 133 108 99 101 114 140 133 148 188 147 196 244 147 143 132 217 237 135 117 162 189 194 188 204 212 200 193 189 190 194 193 190 192 194 196 199 203 207 208 209 211 210 208 205 203 203 202 204 205 206 208 208 209 209 211 213 217 217 215 218 220 221 220 221 223 221 220 220 221 222 218 218 221 224 224 224 225 218 216 220 226 227 227 235 237 236 243 242 243 248 245 236 233 233 233 239
155 159 149 141 167 172 171 137 154 246 156 179 269 215 211 199 219 220 136 133 153 179 197 188 204 210 199 194 187 192 194 189 190 197 201 199 200 201 205 206 205 207 209 208 204 203 204 202 203 204 206 208 209 210 211 214 217 218 220 219 219 222 223 222 222 225 225 226 224 223 224 221 220 221 225 226 224 227 226 220 218 228 236 236 239 239 240 246 246 244 250 253 246 241 240 237 240
170 191 205 165 198 201 172 149 164 224 117 154 247 241 234 212 210 187 129 155 162 182 205 192 201 201 196 194 190 198 193 191 196 202 204 202 202 202 203 204 202 204 205 205 205 204 203 201 201 202 204 207 210 211 211 216 220 220 221 223 224 225 226 226 224 225 226 228 229 229 227 223 222 222 224 227 226 227 229 227 223 231 242 244 242 242 244 248 249 247 249 253 251 247 246 245 245
179 186 222 192 212 186 150 152 172 187 135 172 230 244 258 209 177 149 123 171 186 207 219 206 202 193 197 196 194 204 197 200 206 206 206 204 204 203 202 201 200 202 201 202 204 203 202 200 199 201 203 206 210 211 212 216 218 220 223 224 225 226 228 230 227 225 227 230 232 234 232 226 225 225 223 225 226 228 230 231 230 233 241 245 246 247 249 250 251 251 249 250 251 252 252 250 247
186 181 208 205 217 162 139 154 174 191 154 184 213 235 253 205 136 123 122 182 201 220 226 213 205 198 202 198 200 210 205 206 209 210 210 207 207 204 202 200 198 200 201 202 202 202 203 201 199 200 202 203 207 210 212 215 215 219 225 225 225 226 228 231 231 229 229 232 233 235 234 232 233 233 230 231 231 232 233 234 236 235 240 252 256 254 253 251 249 250 250 250 249 250 252 248 241
192 205 208 194 208 180 147 155 177 202 149 192 221 252 253 178 118 120 151 187 203 220 227 220 216 212 207 205 207 211 210 206 205 210 210 208 208 206 201 197 197 199 199 200 199 199 202 203 201 201 202 202 205 207 210 213 215 219 224 226 226 227 230 230 231 233 231 232 234 236 237 239 242 243 245 246 242 241 243 245 249 247 247 256 260 256 254 250 245 246 249 250 249 245 243 243 237
191 211 217 188 200 205 178 147 165 185 190 210 217 243 256 223 120 144 171 187 199 215 228 226 222 221 215 213 213 215 219 213 203 206 207 207 207 206 203 199 198 198 199 201 201 200 201 202 204 204 204 203 203 205 206 211 215 220 223 225 226 228 231 230 229 231 232 234 236 239 241 242 245 245 249 250 245 244 246 247 252 250 247 250 252 251 252 250 245 244 246 248 251 247 240 242 240
189 195 211 188 197 214 207 164 157 177 205 226 209 224 246 247 201 162 168 183 204 222 231 238 234 226 218 213 219 223 224 224 216 209 205 202 203 204 204 202 200 199 201 203 203 204 204 204 205 207 206 204 203 204 205 209 213 219 222 224 227 229 230 230 230 231 232 235 236 240 241 241 242 241 242 242 237 242 245 241 243 240 236 240 241 241 246 250 246 244 245 247 250 251 244 240 240
195 191 209 207 200 214 194 107 128 183 203 220 220 227 240 245 235 213 187 183 208 238 241 249 245 236 228 220 223 222 225 231 217 195 189 189 194 198 200 199 198 199 201 202 204 205 205 205 205 206 207 204 202 203 204 206 209 215 218 221 225 227 228 228 230 232 233 234 234 235 237 239 242 242 240 238 236 244 246 241 241 238 236 239 238 239 245 250 248 247 248 248 247 248 247 241 239
205 198 213 220 214 209 159 105 105 196 220 220 226 236 245 249 245 239 221 196 208 232 241 248 244 238 234 226 225 222 226 222 174 172 187 190 190 189 192 193 191 195 200 200 202 205 206 205 204 205 206 202 201 202 203 204 206 209 212 217 222 225 227 226 229 233 233 235 236 236 237 240 244 244 243 239 238 244 241 236 240 242 244 244 241 244 248 248 250 251 250 248 244 243 247 248 247
219 209 210 219 222 200 115 104 120 136 237 230 226 242 252 253 253 250 241 228 224 224 231 242 243 240 237 232 230 228 223 186 154 184 202 197 188 190 198 199 194 195 199 200 202 206 207 206 205 206 202 200 202 202 202 204 206 206 208 214 220 224 227 228 231 233 234 237 241 243 243 243 244 244 242 239 240 241 236 234 241 246 244 242 242 244 242 239 243 246 243 243 245 245 247 251 252
232 224 218 223 211 158 108 115 128 143 223 236 217 250 259 255 255 252 242 240 238 230 229 233 238 238 235 233 231 226 216 199 197 202 199 191 183 189 201 205 203 200 197 200 203 203 202 203 205 205 201 200 202 202 201 203 205 205 207 212 217 222 227 231 234 236 239 239 239 241 243 242 243 245 246 247 247 243 238 237 243 243 236 235 239 241 241 240 241 242 242 243 246 250 249 248 249
231 225 226 219 172 170 199 162 143 160 221 288 318 282 270 259 255 250 239 237 236 227 222 223 231 236 237 239 246 233 217 217 218 206 200 194 181 184 197 203 207 204 197 197 199 198 199 202 203 201 201 200 200 203 203 201 201 202 207 215 219 225 231 231 233 239 242 243 242 240 238 239 242 244 249 253 253 248 244 245 246 242 238 240 244 247 248 247 243 243 245 246 246 246 246 246 247
226 226 233 222 167 173 41 126 144 169 214 252 298 285 272 247 239 242 229 218 227 217 211 222 226 232 240 253 262 247 232 235 235 224 218 202 188 188 194 198 203 205 204 202 200 199 198 199 199 197 198 199 199 202 200 197 196 197 203 212 220 230 235 230 229 236 239 242 247 246 242 243 245 244 245 248 249 249 250 253 253 247 245 250 252 253 254 253 249 245 244 250 253 247 244 246 248
222 219 229 249 179 160 103 126 156 208 217 201 224 259 270 229 221 230 203 169 218 209 213 229 220 210 218 232 237 230 226 233 237 236 230 207 194 191 189 194 203 208 211 212 210 206 202 197 194 193 192 195 197 197 196 194 195 197 198 203 211 220 228 228 226 232 236 238 244 247 245 245 246 244 243 242 244 253 259 260 256 250 249 252 254 253 251 249 247 244 245 254 258 251 244 244 248
224 215 220 210 207 154 138 158 186 234 230 151 194 242 262 217 208 213 189 191 216 198 207 225 212 198 202 213 222 216 217 223 226 230 227 212 204 202 200 197 201 207 211 214 214 210 205 196 189 189 189 190 192 191 192 192 194 198 199 202 210 216 223 226 226 230 235 239 243 244 243 241 242 244 245 245 248 256 259 259 257 254 251 251 252 251 247 247 250 248 252 258 260 255 244 240 245
223 13 235 180 185 192 167 180 212 240 43 116 199 240 265 261 221 162 159 211 226 211 212 212 203 200 198 205 215 218 230 231 232 230 220 212 207 204 198 185 182 192 201 208 210 206 200 194 192 191 185 183 187 187 187 189 191 195 197 202 212 219 223 225 226 229 232 238 242 242 243 242 241 243 245 245 246 250 254 255 256 254 251 249 249 252 249 250 253 251 253 258 259 255 246 241 243
227 23 306 158 172 197 183 199 222 237 338 221 197 189 247 259 232 144 157 231 238 228 214 197 192 193 189 202 212 229 243 235 240 237 214 198 193 188 177 163 167 181 192 198 200 199 193 190 192 188 178 176 184 186 185 187 188 189 193 200 209 216 222 225 228 231 233 238 242 243 244 245 245 245 243 239 236 239 244 248 250 249 251 254 257 260 258 254 254 254 256 260 260 256 250 244 244
153 145 103 93 105 150 177 216 220 186 247 244 192 179 234 266 241 197 177 225 239 234 208 178 176 174 171 195 204 231 234 214 225 220 200 177 167 165 150 141 149 166 176 176 178 182 179 177 177 173 168 167 175 181 181 182 184 184 191 198 205 211 214 221 227 230 232 236 242 245 244 248 251 249 248 246 242 242 244 249 254 254 253 257 259 261 261 260 261 264 266 267 264 261 257 251 248
142 153 119 103 121 129 167 220 225 220 235 239 152 168 244 273 251 217 189 232 245 227 189 160 161 161 158 160 153 211 217 184 192 184 170 149 132 138 140 134 132 143 154 154 156 163 163 161 158 154 155 157 162 168 169 174 181 184 192 199 204 208 210 217 225 232 237 240 245 249 249 252 253 253 254 255 252 252 252 254 259 260 255 254 256 258 261 263 265 267 268 266 263 261 258 254 251
155 163 145 135 139 149 194 196 199 234 235 190 74 30 243 243 241 206 96 8 326 257 209 175 169 158 144 132 121 146 156 162 169 158 147 139 131 135 135 126 125 130 134 135 139 145 146 145 148 150 153 159 163 163 164 172 180 185 191 197 202 207 212 219 226 235 240 245 250 255 256 254 254 257 259 259 259 259 260 259 261 263 260 257 257 259 263 266 269 270 268 264 261 258 256 252 250
202 183 168 178 182 178 210 204 199 230 231 108 96 319 238 245 247 246 267 271 205 234 257 158 154 143 127 111 91 100 119 140 146 144 140 137 134 134 130 123 123 123 123 128 134 136 136 137 144 152 155 160 164 161 163 173 178 184 189 194 200 206 213 220 228 236 241 245 250 252 253 252 254 257 259 268 275 271 265 264 264 264 265 263 261 262 263 264 266 268 268 267 264 262 260 256 254
198 191 187 198 192 185 206 204 207 225 208 93 185 211 250 263 257 250 262 255 175 152 94 78 96 101 85 74 60 83 115 123 126 132 130 129 127 124 124 121 118 116 116 123 131 135 135 133 136 147 151 155 160 158 162 171 175 180 183 188 193 200 210 218 226 235 240 245 248 249 249 252 256 258 261 271 278 274 267 268 270 268 265 264 264 264 264 263 261 261 262 265 266 265 264 262 259
195 204 209 212 208 210 210 206 212 203 120 114 192 207 230 240 146 180 221 59 103 120 102 67 64 76 42 49 106 123 128 125 119 120 114 110 113 113 113 113 110 112 115 120 128 133 132 128 131 142 148 151 155 158 161 165 173 181 186 192 193 197 204 207 215 226 234 239 245 253 258 260 263 265 269 268 267 269 271 271 273 275 273 270 267 265 265 265 263 261 260 260 262 264 263 262 262
188 343 242 227 234 221 183 216 193 151 63 169 187 237 246 253 284 204 161 135 151 139 124 139 159 148 145 159 154 147 141 134 124 118 110 100 98 99 100 103 104 110 119 125 130 132 133 133 134 140 146 150 153 157 161 165 174 183 188 197 201 206 211 209 213 226 237 244 246 250 254 258 262 263 265 263 262 266 272 275 273 275 279 278 276 274 270 269 268 268 268 267 264 263 264 264 264
164 172 200 217 359 68 128 162 98 69 273 208 170 235 256 267 271 230 163 161 173 168 165 172 170 163 168 169 160 153 144 140 132 117 110 102 94 92 91 95 98 107 122 129 131 133 135 136 138 142 146 149 152 156 160 163 167 172 178 187 196 207 215 214 217 228 241 251 254 255 255 260 263 264 264 263 262 262 266 272 270 269 272 274 277 278 275 272 270 270 271 271 270 267 267 267 266
136 180 180 142 35 28 162 232 172 192 248 224 169 222 239 240 248 158 146 180 179 177 185 175 163 171 179 172 164 158 149 142 131 115 111 106 98 93 88 89 93 107 124 132 136 139 139 137 139 142 144 146 148 149 151 153 154 158 162 170 180 187 195 204 213 225 241 257 271 275 271 273 275 276 278 276 274 271 270 273 271 270 271 270 272 275 273 272 272 274 274 272 274 274 272 271 270
355 250 207 134 214 214 190 218 223 210 235 244 205 215 234 233 225 169 170 188 184 183 190 185 175 173 178 175 166 157 148 140 131 126 125 118 116 114 107 104 106 115 126 131 135 138 139 138 139 141 141 141 142 141 141 143 147 150 150 151 156 153 153 165 178 187 187 183 296 313 294 291 290 290 291 289 287 284 280 281 277 276 278 274 273 274 275 277 276 276 278 277 277 276 274 273 273
189 283 244 99 264 230 200 211 231 233 237 249 223 205 222 224 220 228 212 192 190 191 192 194 186 177 177 173 163 155 150 149 147 147 145 134 130 125 118 119 118 121 125 125 127 130 131 131 132 133 133 134 137 138 138 139 140 140 139 137 135 131 135 136 124 123 119 98 56 6 341 326 315 306 304 301 299 298 294 291 287 287 288 285 283 282 279 278 277 276 276 276 275 273 273 273 272
181 193 185 185 202 228 259 236 231 245 239 244 245 237 238 202 201 224 225 208 196 193 191 190 179 171 170 164 158 156 153 158 156 150 148 141 132 125 120 120 119 121 121 119 123 126 126 127 126 127 129 130 132 133 133 134 131 130 128 125 124 120 117 115 106 102 93 75 56 42 28 9 355 342 338 333 327 327 323 319 317 312 307 302 296 291 284 279 277 276 275 274 273 271 272 274 275
192 201 191 196 189 165 210 220 191 225 245 247 262 261 258 112 150 229 224 185 105 182 187 174 157 158 160 157 159 160 158 162 157 148 146 139 133 130 126 123 120 118 113 111 117 120 122 123 124 127 128 127 129 128 127 125 122 120 117 112 110 106 103 100 96 91 83 74 66 60 56 52 45 34 23 16 5 357 355 353 350 341 333 325 315 306 298 290 284 282 282 282 281 279 279 279 279